Location: *
(43.7000°S, 168.7000°W)
Time: 14:53:35
(UTC+00:00)

Cosmos 2208 Rocket - Pass Details

Date: 07 July 2020
Orbit: 754 x 806 km, 74.0° (Epoch: 03 August)

Event Time Altitude Azimuth Distance (km) Brightness Sun altitude
Rises 18:05:21 0° 346° (NNW) 3,227 7.4 -7.6°
Reaches altitude 10° 18:07:43 10° 347° (NNW) 2,303 6.6 -7.2°
Maximum altitude 18:12:56 76° 72° (ENE) 794 4.3 -6.4°
Drops below altitude 10° 18:18:11 10° 157° (SSE) 2,316 6.5 -5.5°
Sets 18:20:34 0° 158° (SSE) 3,247 7.2 -5.1°
